Weather reports worldwide

Advertisment
Le Touquet, France (7003): temperature & dewpoint: 08.11.2018 13:00:00 - 14.11.2018 13:00:00 (CET)Le Touquet, France (7003): temperature 5cm: 08.11.2018 13:00:00 - 14.11.2018 13:00:00 (CET)Le Touquet, France (7003): wind speed & gusts: 08.11.2018 13:00:00 - 14.11.2018 13:00:00 (CET)Le Touquet, France (7003): wind direction: 08.11.2018 13:00:00 - 14.11.2018 13:00:00 (CET)Le Touquet, France (7003): reduced air pressure: 08.11.2018 13:00:00 - 14.11.2018 13:00:00 (CET)Le Touquet, France (7003): visibility: 08.11.2018 13:00:00 - 14.11.2018 13:00:00 (CET)Le Touquet, France (7003): sunshine duration: 08.11.2018 13:00:00 - 14.11.2018 13:00:00 (CET)Le Touquet, France (7003): precipitation: 08.11.2018 13:00:00 - 14.11.2018 13:00:00 (CET)
Date & Time tt [°C] td [°C] tt 5cm [°C] ff [km/h] ff [kn] fx [km/h] fx [kn] dd ppp [hPa] vv [km] sd [min] rr [mm]
14.11.2018 13:00:00 12,5 9,0 - 15 8 24 13 SSE 1024,8 19 - -
14.11.2018 12:00:00 11,9 8,9 12,5 15 8 22 12 SE 1025,4 18 60 0,0
14.11.2018 11:00:00 10,4 8,2 11,2 12 7 21 11 SE 1026,2 18 60 0,0
14.11.2018 10:00:00 8,2 7,3 6,0 11 6 15 8 SE 1026,2 17 35 0,0
14.11.2018 09:00:00 6,5 5,9 3,6 10 5 14 8 SE 1026,4 15 8 0,0
14.11.2018 08:00:00 6,2 5,3 3,5 6 3 16 9 SE 1026,0 10 0 0,0
14.11.2018 07:00:00 7,3 6,6 5,3 11 6 22 12 SSE 1025,8 30 0 0,0
14.11.2018 06:00:00 6,8 6,4 4,6 10 5 15 8 SE 1025,9 16 0 0,0
14.11.2018 05:00:00 7,0 6,6 3,5 8 4 14 8 SSE 1026,3 20 0 0,0
14.11.2018 04:00:00 6,5 6,1 3,2 8 4 10 6 SE 1026,9 15 0 0,0
14.11.2018 03:00:00 6,5 5,9 3,8 8 4 11 6 SE 1027,6 17 0 0,0
14.11.2018 02:00:00 6,4 5,7 4,3 9 5 14 7 SE 1027,9 16 0 0,0
14.11.2018 01:00:00 7,7 6,5 6,2 7 4 13 7 SSE 1028,0 19 0 0,0
14.11.2018 00:00:00 7,6 6,5 5,2 8 5 13 7 SSE 1028,0 17 0 0,0
13.11.2018 23:00:00 8,2 6,7 6,4 8 5 13 7 S 1028,2 23 0 0,0
13.11.2018 22:00:00 8,6 7,1 6,5 8 5 16 9 S 1028,0 30 0 0,0
13.11.2018 21:00:00 9,1 7,7 7,2 7 4 11 6 S 1027,8 19 0 0,0
13.11.2018 20:00:00 10,9 9,2 9,4 9 5 16 9 S 1027,7 13 0 0,0
13.11.2018 19:00:00 11,9 9,5 10,6 12 7 25 14 SW 1027,3 17 0 0,0
13.11.2018 18:00:00 11,9 10,1 10,6 12 6 29 15 SW 1027,0 13 0 0,0
13.11.2018 17:00:00 12,5 10,6 11,8 16 9 38 21 SW 1026,7 13 43 0,0
13.11.2018 16:00:00 13,0 11,4 10,6 16 9 45 24 WSW 1026,1 11 11 0,6
13.11.2018 15:00:00 11,3 10,0 10,5 11 6 40 22 WSW 1025,6 13 0 9,8
13.11.2018 14:00:00 12,8 10,5 12,1 16 9 33 18 WSW 1025,2 14 3 0,0
13.11.2018 13:00:00 11,7 9,3 11,3 20 11 32 17 SW 1024,6 18 11 0,2
13.11.2018 12:00:00 12,0 9,7 11,4 19 10 35 19 SW 1024,3 13 10 0,0
13.11.2018 11:00:00 11,2 9,3 9,6 16 9 37 20 SW 1023,6 14 11 0,0
13.11.2018 10:00:00 10,5 8,8 8,7 18 10 36 19 SW 1022,7 12 0 1,8
13.11.2018 09:00:00 11,0 8,6 9,1 16 9 47 26 SW 1021,8 13 0 0,2
13.11.2018 08:00:00 11,0 9,3 9,3 21 11 41 22 SW 1020,6 13 0 0,0
13.11.2018 07:00:00 10,2 8,8 8,5 9 5 33 18 WSW 1019,9 3,3 0 1,4
13.11.2018 06:00:00 9,2 8,0 8,3 14 8 57 31 W 1019,5 4,2 0 2,0
13.11.2018 05:00:00 11,7 9,4 11,1 16 9 37 20 SSW 1018,2 17 0 0,0
13.11.2018 04:00:00 12,0 9,6 10,2 20 11 35 19 SSW 1018,1 18 0 0,0
13.11.2018 03:00:00 12,0 9,7 10,6 14 8 29 15 SSW 1017,9 18 0 0,0
13.11.2018 02:00:00 11,1 9,4 9,6 6 4 27 15 S 1017,6 19 0 0,0
13.11.2018 01:00:00 11,9 9,6 10,3 14 8 29 15 SSW 1017,1 19 0 0,0
13.11.2018 00:00:00 11,7 9,6 9,8 12 6 26 14 SSW 1016,4 19 0 0,0
12.11.2018 23:00:00 11,3 9,4 9,3 13 7 23 13 S 1016,2 20 0 0,0
12.11.2018 22:00:00 10,5 8,6 8,4 10 6 18 10 S 1016,3 54 0 0,0
12.11.2018 21:00:00 9,9 8,2 8,2 10 5 19 10 SSE 1016,2 59 0 0,0
12.11.2018 20:00:00 10,1 8,2 8,3 9 5 18 10 S 1016,0 60 0 0,0
12.11.2018 19:00:00 10,1 7,9 8,4 9 5 15 8 SSE 1015,5 60 0 0,0
12.11.2018 18:00:00 11,1 8,0 9,2 9 5 18 10 SSE 1015,3 60 0 0,0
12.11.2018 17:00:00 12,3 8,0 11,2 10 5 36 19 S 1014,6 60 0 0,0
12.11.2018 16:00:00 12,8 8,7 12,6 14 8 32 17 SSW 1014,1 59 10 0,0
12.11.2018 15:00:00 13,4 8,5 13,5 16 9 34 18 SW 1013,7 59 30 0,0
12.11.2018 14:00:00 12,9 8,6 13,7 16 8 31 17 SSW 1013,5 59 39 0,0
12.11.2018 13:00:00 12,3 8,9 12,5 17 9 27 15 SSW 1013,4 45 7 0,0
12.11.2018 12:00:00 11,5 9,6 11,3 9 5 15 8 S 1013,0 60 0 0,0
12.11.2018 11:00:00 10,8 9,6 10,2 9 5 16 9 S 1012,8 58 0 0,0
12.11.2018 10:00:00 10,6 9,2 9,6 10 5 18 10 SSE 1012,1 60 0 0,2
12.11.2018 09:00:00 10,2 9,0 9,2 10 6 19 10 SSE 1011,4 40 0 0,0
12.11.2018 08:00:00 10,1 9,0 9,4 11 6 22 12 SSE 1010,8 60 0 0,2
12.11.2018 07:00:00 10,4 9,3 9,7 12 6 19 11 SE 1010,4 38 0 0,0
12.11.2018 06:00:00 10,7 9,6 10,1 8 5 17 9 SSE 1010,1 60 0 0,0
12.11.2018 05:00:00 10,8 10,0 10,1 10 6 20 11 SSE 1009,4 33 0 0,0
12.11.2018 04:00:00 10,8 9,9 9,8 11 6 19 10 SSE 1009,3 33 0 0,0
12.11.2018 03:00:00 10,6 9,7 8,9 10 5 19 10 SSE 1009,7 39 0 0,0
12.11.2018 02:00:00 9,8 9,0 8,4 4 2 14 8 SSE 1009,3 46 0 0,0
12.11.2018 01:00:00 9,4 8,5 8,2 8 4 14 8 SE 1009,4 52 0 0,0
12.11.2018 00:00:00 9,3 8,4 6,8 8 4 13 7 SSE 1009,5 53 0 0,0
11.11.2018 23:00:00 9,3 8,4 6,9 6 4 12 6 SSE 1009,0 37 0 0,0
11.11.2018 22:00:00 9,6 8,4 8,2 7 4 20 11 SSE 1008,9 45 0 0,0
11.11.2018 21:00:00 9,6 8,5 6,8 9 5 13 7 SSE 1008,3 33 0 0,0
11.11.2018 20:00:00 10,1 8,4 8,5 8 4 15 8 SSE 1007,4 56 0 0,0
11.11.2018 19:00:00 11,0 8,6 9,6 9 5 19 10 S 1006,6 60 0 0,0
11.11.2018 18:00:00 12,3 9,1 11,4 11 6 23 13 S 1006,3 20 0 0,0
11.11.2018 17:00:00 12,5 9,3 11,7 11 6 34 19 S 1005,4 16 19 0,0
11.11.2018 16:00:00 13,4 9,3 12,9 16 9 40 21 SSW 1004,9 27 56 0,0
11.11.2018 15:00:00 14,0 9,4 13,9 22 12 46 25 SSW 1004,1 32 37 0,0
11.11.2018 14:00:00 13,4 9,4 13,7 18 10 41 22 SSW 1003,5 38 0 0,0
11.11.2018 13:00:00 13,4 9,4 13,9 20 11 44 24 SSW 1003,4 39 0 0,0
11.11.2018 12:00:00 13,6 9,6 13,2 27 15 45 25 SSW 1003,0 18 2 0,0
11.11.2018 11:00:00 13,0 9,4 12,3 20 11 43 23 SSW 1002,6 17 0 0,0
11.11.2018 10:00:00 12,4 8,9 11,0 20 11 41 22 S 1001,6 20 0 0,0
11.11.2018 09:00:00 11,5 8,2 10,1 16 9 39 21 S 1000,8 59 2 0,0
11.11.2018 08:00:00 11,3 8,0 10,1 18 10 42 23 S 999,8 60 0 0,0
11.11.2018 07:00:00 11,6 8,4 10,4 18 10 34 19 S 998,9 59 0 0,0
11.11.2018 06:00:00 11,4 8,6 10,2 16 9 35 19 S 999,0 60 0 0,0
11.11.2018 05:00:00 11,3 9,4 10,2 15 8 35 19 S 998,8 43 0 0,2
11.11.2018 04:00:00 11,6 9,2 10,3 16 9 35 19 S 998,8 50 0 0,0
11.11.2018 03:00:00 11,7 8,7 9,8 14 8 29 16 S 998,8 60 0 0,0
11.11.2018 02:00:00 11,2 8,8 9,9 15 8 30 16 S 998,7 60 0 0,0
11.11.2018 01:00:00 11,2 8,8 9,9 12 7 37 20 S 998,8 60 0 0,0
11.11.2018 00:00:00 11,6 9,2 10,7 15 8 32 17 S 998,7 60 0 0,0
10.11.2018 23:00:00 12,0 9,2 9,9 16 9 31 17 S 998,7 60 0 0,0
10.11.2018 22:00:00 11,3 9,7 10,0 13 7 28 15 SSE 998,4 57 0 0,2
10.11.2018 21:00:00 11,5 9,6 10,4 18 10 30 16 SSE 998,4 60 0 0,0
10.11.2018 20:00:00 11,1 9,0 9,3 14 8 22 12 SSE 998,5 55 0 0,0
10.11.2018 19:00:00 10,9 9,0 9,4 13 7 22 12 SSE 998,8 56 0 0,0
10.11.2018 18:00:00 11,3 9,4 9,7 11 6 21 11 SSE 998,6 45 0 0,0
10.11.2018 17:00:00 12,5 9,7 11,0 10 6 27 14 S 998,2 56 46 0,0
10.11.2018 16:00:00 13,6 10,0 13,0 16 9 37 20 S 998,2 32 60 0,0
10.11.2018 15:00:00 13,8 9,4 13,6 17 9 37 20 S 998,3 60 55 0,0
10.11.2018 14:00:00 12,8 10,5 11,6 14 7 30 16 S 998,3 55 1 0,0
10.11.2018 13:00:00 12,2 10,3 11,7 16 8 33 18 S 998,3 56 0 0,0
10.11.2018 12:00:00 12,8 10,7 12,1 16 9 36 19 S 998,6 58 0 0,0
10.11.2018 11:00:00 12,6 10,5 11,8 12 6 25 13 S 998,8 60 7 0,0
10.11.2018 10:00:00 12,1 10,3 11,2 14 8 25 14 S 998,6 60 0 0,0
10.11.2018 09:00:00 12,0 10,1 10,9 11 6 31 17 S 998,6 59 0 0,0
10.11.2018 08:00:00 12,0 10,2 10,8 18 10 36 19 S 998,3 48 0 0,0
10.11.2018 07:00:00 12,3 10,5 11,4 17 9 42 23 SSW 997,6 58 0 0,0
10.11.2018 06:00:00 12,2 10,9 11,0 18 10 36 19 SSW 997,2 20 0 0,0
10.11.2018 05:00:00 11,5 10,9 10,6 21 11 43 23 S 996,7 7 0 1,2
10.11.2018 04:00:00 11,1 10,3 10,4 16 9 35 19 S 996,8 8 0 2,8
10.11.2018 03:00:00 11,0 10,1 10,2 18 10 40 22 S 996,9 3,6 0 2,8
10.11.2018 02:00:00 10,9 9,8 10,0 21 12 40 22 S 997,4 6 0 3,5
10.11.2018 01:00:00 11,0 9,4 9,8 26 14 46 25 SSE 998,1 5 0 2,8
10.11.2018 00:00:00 11,3 8,9 9,8 22 12 46 25 S 999,3 9 0 1,0
09.11.2018 23:00:00 11,1 9,5 9,9 16 9 35 19 SSE 1000,9 10 0 2,0
09.11.2018 22:00:00 11,7 8,4 10,4 20 11 37 20 SSE 1002,0 59 0 0,0
09.11.2018 21:00:00 11,1 8,0 10,3 21 12 39 21 SSE 1002,6 60 0 0,0
09.11.2018 20:00:00 11,2 8,1 10,0 21 11 36 19 SSE 1003,8 57 0 0,0
09.11.2018 19:00:00 11,3 8,0 9,4 17 9 27 15 SSE 1005,1 54 0 0,0
09.11.2018 18:00:00 10,7 7,8 7,5 9 5 14 8 SSE 1005,8 53 0 0,0
09.11.2018 17:00:00 12,0 8,1 10,0 7 4 21 11 S 1006,5 60 11 0,0
09.11.2018 16:00:00 13,7 8,3 12,7 13 7 31 17 S 1007,1 58 60 0,0
09.11.2018 15:00:00 13,8 8,2 13,4 16 8 35 19 SSW 1008,1 37 60 0,0
09.11.2018 14:00:00 13,8 8,2 14,6 18 10 39 21 SW 1008,8 42 52 0,0
09.11.2018 13:00:00 13,6 9,2 12,4 17 9 31 17 S 1008,8 24 60 0,0
09.11.2018 12:00:00 11,7 8,4 10,5 19 10 30 16 SSE 1009,6 25 45 0,0
09.11.2018 11:00:00 9,9 7,3 10,0 16 9 28 15 SSE 1010,1 45 6 0,0
09.11.2018 10:00:00 9,0 7,6 7,7 15 8 21 11 ESE 1010,2 21 6 0,0
09.11.2018 09:00:00 7,7 6,6 6,7 16 9 23 13 ESE 1010,7 19 0 0,0
09.11.2018 08:00:00 7,1 6,0 5,4 17 9 23 12 ESE 1010,8 18 0 0,0
09.11.2018 07:00:00 6,5 5,4 5,6 12 7 24 13 ESE 1011,3 17 0 0,0
09.11.2018 06:00:00 6,8 5,6 5,8 19 11 27 15 SE 1011,5 17 0 0,0
09.11.2018 05:00:00 6,5 5,4 5,3 12 7 18 10 SE 1011,8 16 0 0,0
09.11.2018 04:00:00 6,5 5,3 5,6 14 7 22 12 SE 1012,1 16 0 0,0
09.11.2018 03:00:00 6,7 5,5 4,8 14 8 18 10 ESE 1012,4 19 0 0,0
09.11.2018 02:00:00 6,3 5,3 4,3 11 6 17 9 SE 1013,0 20 0 0,0
09.11.2018 01:00:00 6,4 5,3 4,6 12 7 19 11 ESE 1013,6 27 0 0,0
09.11.2018 00:00:00 6,1 5,1 3,7 12 6 15 8 ESE 1014,4 26 0 0,0
08.11.2018 23:00:00 6,8 5,6 5,7 12 7 21 11 ESE 1015,1 29 0 0,0
08.11.2018 22:00:00 7,0 5,8 5,7 13 7 20 11 ESE 1015,5 20 0 0,0
08.11.2018 21:00:00 7,0 5,6 5,7 12 6 29 16 ESE 1015,8 19 0 0,0
08.11.2018 20:00:00 7,7 6,6 5,1 20 11 27 15 ESE 1016,3 17 0 0,0
08.11.2018 19:00:00 6,7 5,6 4,7 12 6 18 10 ESE 1016,6 14 0 0,0
08.11.2018 18:00:00 7,6 5,9 5,4 8 4 23 13 SE 1017,2 19 0 0,0
08.11.2018 17:00:00 9,6 6,7 8,3 16 8 27 14 SE 1017,0 32 54 0,0
08.11.2018 16:00:00 11,5 6,6 10,8 15 8 26 14 SSE 1017,4 19 60 0,0
08.11.2018 15:00:00 12,5 6,1 12,1 15 8 26 14 SSE 1017,5 40 60 0,0
08.11.2018 14:00:00 12,6 6,4 16,2 16 9 27 15 SSE 1018,2 39 60 0,0
08.11.2018 13:00:00 12,0 6,3 11,8 15 8 27 14 SSE 1018,8 43 60 0,0

tt = temperature
td = dewpoint
tt 5cm = temperature 5cm
ff = wind speed
fx = gusts
dd = wind direction
ppp = reduced air pressure
vv = visibility
sd = sunshine duration
rr = precipitation

Next stations